{"data":{"norad_id":68026,"epoch":"2026-09-18T17:13:29.639424Z","epoch_age_seconds":213560,"freshness":"STALE","line1":"1 68026U 26040M   26261.71770416  .00020343  00000+0  63040-3 0  9991","line2":"2 68026  97.2823 209.0683 0002822  69.4393 290.7152 15.33459632 31046","mean_motion":15.33459632,"eccentricity":0.0002822,"inclination_deg":97.2823,"raan_deg":209.0683,"arg_perigee_deg":69.4393,"mean_anomaly_deg":290.7152,"bstar":0.0006304,"rev_number":3104,"period_min":93.905308620475,"perigee_km":463.5683660269,"apogee_km":467.43091454667,"semimajor_km":6843.6366402868,"source":"CELESTRAK","updated_at":"2026-09-20T09:00:43.743753Z"}}